Columbia, MO

1:32 PM CDT on March 23, 2017 (GMT -0500)
Columbia Regional

Weather History for KCOU - July, 2013

Change the Weather History Date:

Tuesday, July 16, 2013

  Actual Average Record
Temperature  
Mean Temperature 81 °F 78 °F  
Max Temperature 90 °F 88 °F 105 °F (1936)
Min Temperature 71 °F 67 °F 53 °F (1930)
Degree Days  
Heating Degree Days 0 0  
Month to date heating degree days 0 0  
Since 1 June heating degree days 6 11  
Since 1 July heating degree days 0 0  
Cooling Degree Days 16 13  
Month to date cooling degree days 173 194  
Year to date cooling degree days 574 545  
Since 1 June cooling degree days 440 442  
Growing Degree Days 30 (Base 50)    
Moisture  
Dew Point 72 °F    
Average Humidity 76    
Maximum Humidity 100    
Minimum Humidity 52    
Precipitation  
Precipitation 0.00 in 0.16 in 2.30 in (1924)
Month to date precipitation 0.99 2.41  
Year to date precipitation 29.75 23.43  
Snow  
Snow 0.00 in 0.00 in 0.00 in (2015)
Month to date snowfall 0.0 0.0  
Since 1 June snowfall 0.0 0.0  
Since 1 July snowfall 0.0 0.0  
Snow Depth 0.00 in    
Sea Level Pressure  
Sea Level Pressure 30.25 in    
Wind  
Wind Speed 6 mph (SE)    
Max Wind Speed 13 mph    
Max Gust Speed 15 mph    
Visibility 9 miles    
Events      
T = Trace of Precipitation, MM = Missing Value Source: NWS Daily Summary

Daily Weather History Graph

Daily Weather History Graph

Search for Another Location

Airport or City:

Trip Planner

Search our weather history database for the weather conditions in past years. The results will help you decide how hot, cold, wet, or windy it might be!

Date:

Astronomy

Jul. 16, 2013 Rise Set
Actual Time 5:57 AM CDT 8:32 PM CDT
Civil Twilight 5:26 AM CDT 9:03 PM CDT
Nautical Twilight 4:47 AM CDT 9:41 PM CDT
Astronomical Twilight 4:04 AM CDT 10:24 PM CDT
Moon 2:16 PM CDT (7/16) 12:25 AM CDT (7/16)
Length of Visible Light 15h 37m
Length of Day
14h 35m
First Quarter, 56% of the Moon is Illuminated
Jul 16
First Quarter
Jul 22
Full
Jul 29
Last Quarter
Aug 6
New
Aug 14
First Quarter

Hourly Weather History & Observations

Time (CDT) Temp. Heat Index Dew Point Humidity Pressure Visibility Wind Dir Wind Speed Gust Speed Precip Events Conditions
12:54 AM 72.0 °F - 70.0 °F 93% 30.21 in 10.0 mi East 5.8 mph - N/A   Clear
1:54 AM 72.0 °F - 70.0 °F 93% 30.20 in 10.0 mi SE 4.6 mph - N/A   Clear
2:54 AM 72.0 °F - 70.0 °F 93% 30.21 in 10.0 mi SE 5.8 mph - N/A   Mostly Cloudy
3:54 AM 72.0 °F - 70.0 °F 93% 30.21 in 7.0 mi SE 5.8 mph - N/A   Clear
4:54 AM 72.0 °F - 70.0 °F 93% 30.22 in 5.0 mi East 5.8 mph - N/A   Clear
5:54 AM 72.0 °F - 71.1 °F 97% 30.24 in 6.0 mi ESE 5.8 mph - N/A   Clear
6:54 AM 73.0 °F - 71.1 °F 93% 30.25 in 6.0 mi ESE 6.9 mph - N/A   Clear
7:54 AM 75.0 °F - 73.0 °F 94% 30.27 in 10.0 mi SE 6.9 mph - N/A   Clear
8:22 AM 75.9 °F - 73.0 °F 91% 30.30 in 10.0 mi SSE 10.4 mph - N/A   Partly Cloudy
8:51 AM 78.8 °F - 73.4 °F 83% 30.30 in 10.0 mi SE 8.1 mph - N/A   Mostly Cloudy
8:54 AM 77.0 °F - 73.0 °F 88% 30.28 in 10.0 mi SSE 8.1 mph - N/A   Mostly Cloudy
9:12 AM 78.1 °F - 73.9 °F 87% 30.30 in 10.0 mi SSE 6.9 mph - N/A   Overcast
9:54 AM 79.0 °F - 73.0 °F 82% 30.28 in 10.0 mi SSE 5.8 mph - N/A   Scattered Clouds
10:54 AM 82.0 °F 87.9 °F 73.9 °F 76% 30.28 in 10.0 mi SSW 8.1 mph - N/A   Partly Cloudy
11:54 AM 84.0 °F 90.2 °F 73.0 °F 69% 30.28 in 10.0 mi South 8.1 mph - N/A   Partly Cloudy
12:54 PM 87.1 °F 93.6 °F 72.0 °F 61% 30.27 in 10.0 mi Variable 4.6 mph - N/A   Scattered Clouds
1:54 PM 88.0 °F 94.7 °F 72.0 °F 59% 30.25 in 10.0 mi SE 6.9 mph - N/A   Partly Cloudy
2:54 PM 89.1 °F 96.0 °F 72.0 °F 57% 30.25 in 10.0 mi ESE 6.9 mph - N/A   Mostly Cloudy
3:54 PM 90.0 °F 96.4 °F 71.1 °F 54% 30.23 in 10.0 mi SE 5.8 mph - N/A   Clear
4:54 PM 90.0 °F 95.4 °F 70.0 °F 52% 30.22 in 10.0 mi SE 8.1 mph - N/A   Clear
5:54 PM 89.1 °F 95.0 °F 71.1 °F 55% 30.22 in 10.0 mi SE 8.1 mph - N/A   Clear
6:54 PM 87.1 °F 92.8 °F 71.1 °F 59% 30.22 in 10.0 mi SE 6.9 mph - N/A   Clear
7:54 PM 84.9 °F 91.4 °F 73.0 °F 67% 30.23 in 10.0 mi ESE 3.5 mph - N/A   Clear
8:54 PM 82.0 °F 86.7 °F 72.0 °F 71% 30.24 in 10.0 mi ESE 5.8 mph - N/A   Clear
9:54 PM 81.0 °F 85.2 °F 72.0 °F 74% 30.26 in 10.0 mi ESE 4.6 mph - N/A   Clear
10:54 PM 79.0 °F - 72.0 °F 79% 30.27 in 10.0 mi ESE 6.9 mph - N/A   Clear
11:54 PM 79.0 °F - 72.0 °F 79% 30.28 in 10.0 mi SE 6.9 mph - N/A   Clear